West Chicago, IL

8:03 PM CDT on August 26, 2016 (GMT -0500)
Du Page

Weather History for KDPA - January, 2014

Change the Weather History Date:

Friday, January 24, 2014

  Actual Average Record
Temperature  
Mean Temperature 10 °F 24 °F  
Max Temperature 28 °F 32 °F 45 °F (2010)
Min Temperature -8 °F 16 °F -10 °F (2002)
Degree Days  
Heating Degree Days 55 41  
Month to date heating degree days 1199 1004  
Since 1 July heating degree days 3985 3431  
Cooling Degree Days 0 0  
Month to date cooling degree days 0 0  
Year to date cooling degree days 0 0  
Moisture  
Dew Point 9 °F    
Average Humidity 74    
Maximum Humidity 93    
Minimum Humidity 57    
Precipitation  
Precipitation 0.04 in 0.04 in 0.04 in (2014)
Month to date precipitation 0.73 0.98  
Year to date precipitation 0.73 0.98  
Sea Level Pressure  
Sea Level Pressure 29.87 in    
Wind  
Wind Speed 19 mph (SW)    
Max Wind Speed 35 mph    
Max Gust Speed 46 mph    
Visibility 6 miles    
Events Snow    
T = Trace of Precipitation, MM = Missing Value Source: NWS Daily Summary

Daily Weather History Graph

Daily Weather History Graph

Search for Another Location

Airport or City:

Trip Planner

Search our weather history database for the weather conditions in past years. The results will help you decide how hot, cold, wet, or windy it might be!

Date:

Astronomy

Jan. 24, 2014 Rise Set
Actual Time 7:12 AM CST 4:58 PM CST
Civil Twilight 6:42 AM CST 5:28 PM CST
Nautical Twilight 6:08 AM CST 6:02 PM CST
Astronomical Twilight 5:35 AM CST 6:35 PM CST
Moon 12:38 AM CST (1/24) 11:17 AM CST (1/24)
Length of Visible Light 10h 45m
Length of Day
9h 45m
Last Quarter, 44% of the Moon is Illuminated
Jan 24
Last Quarter
Jan 30
New
Feb 6
First Quarter
Feb 14
Full
Feb 22
Last Quarter

Hourly Weather History & Observations

Time (CST) Temp. Windchill Dew Point Humidity Pressure Visibility Wind Dir Wind Speed Gust Speed Precip Events Conditions
12:52 AM -7.1 °F -21.4 °F -14.1 °F 72% 30.56 in 10.0 mi WSW 6.9 mph - N/A   Clear
1:52 AM -8.0 °F -23.9 °F -14.1 °F 75% 30.53 in 10.0 mi SW 8.1 mph - N/A   Clear
2:52 AM -8.0 °F -27.1 °F -13.0 °F 79% 30.51 in 10.0 mi SSW 11.5 mph - N/A   Clear
3:52 AM -7.1 °F -23.9 °F -11.9 °F 79% 30.48 in 10.0 mi SSW 9.2 mph - N/A   Clear
4:52 AM -4.0 °F -24.5 °F -9.9 °F 76% 30.43 in 10.0 mi SSW 15.0 mph - N/A   Clear
5:52 AM -0.9 °F -20.6 °F -7.1 °F 75% 30.38 in 10.0 mi SSW 15.0 mph 20.7 mph N/A   Clear
6:52 AM -0.0 °F -19.4 °F -7.1 °F 72% 30.31 in 10.0 mi SSW 15.0 mph 23.0 mph N/A   Clear
7:52 AM 1.9 °F -19.2 °F -6.0 °F 69% 30.25 in 6.0 mi SSW 19.6 mph 26.5 mph N/A   Haze
8:52 AM 6.1 °F -12.8 °F -4.0 °F 63% 30.20 in 9.0 mi SSW 17.3 mph 25.3 mph N/A   Partly Cloudy
9:52 AM 9.0 °F -11.8 °F -0.9 °F 64% 30.14 in 10.0 mi SSW 24.2 mph 38.0 mph N/A   Partly Cloudy
10:52 AM 12.9 °F -8.6 °F 1.0 °F 59% 30.04 in 10.0 mi SSW 31.1 mph 44.9 mph 0.01 in Snow Blowing Snow
11:52 AM 15.1 °F -3.3 °F 3.0 °F 59% 29.99 in 10.0 mi SSW 23.0 mph 38.0 mph 0.01 in Snow Blowing Snow
12:12 PM 15.8 °F -3.7 °F 5.0 °F 62% 29.91 in 2.0 mi SW 27.6 mph 41.4 mph N/A Snow Blowing Snow
12:26 PM 15.8 °F -5.0 °F 5.0 °F 62% 29.91 in 3.0 mi SSW 32.2 mph 41.4 mph 0.01 in Snow Blowing Snow
12:52 PM 17.1 °F -0.3 °F 5.0 °F 59% 29.95 in 7.0 mi SW 21.9 mph 33.4 mph 0.02 in Snow Blowing Snow
1:52 PM 18.0 °F 0.6 °F 6.1 °F 60% 29.87 in 7.0 mi SSW 23.0 mph 28.8 mph N/A Snow Blowing Snow
2:52 PM 19.9 °F 3.5 °F 7.0 °F 57% 29.84 in 9.0 mi SW 21.9 mph 32.2 mph N/A   Overcast
3:52 PM 19.9 °F 3.5 °F 8.1 °F 60% 29.80 in 9.0 mi SSW 21.9 mph 31.1 mph 0.01 in   Overcast
4:52 PM 21.0 °F 5.7 °F 10.0 °F 63% 29.77 in 10.0 mi SSW 19.6 mph 27.6 mph 0.00 in   Overcast
5:50 PM 21.2 °F 6.8 °F 12.2 °F 68% 29.71 in 4.0 mi SSW 17.3 mph - 0.00 in Snow Light Snow
5:52 PM 21.9 °F 8.7 °F 12.9 °F 68% 29.76 in 3.0 mi SSW 15.0 mph - 0.00 in Snow Light Snow
5:57 PM 21.2 °F 6.0 °F 14.0 °F 74% 29.71 in 1.8 mi SSW 19.6 mph 25.3 mph 0.00 in Snow Light Snow
6:03 PM 21.2 °F 6.8 °F 14.0 °F 74% 29.70 in 2.0 mi SSW 17.3 mph 25.3 mph 0.00 in Snow Light Snow
6:13 PM 21.2 °F 6.4 °F 14.0 °F 74% 29.70 in 6.0 mi SSW 18.4 mph 26.5 mph 0.00 in Snow Light Snow
6:52 PM 23.0 °F 7.2 °F 15.1 °F 72% 29.72 in 6.0 mi SSW 23.0 mph 33.4 mph 0.00 in   Haze
7:50 PM 24.8 °F 9.6 °F 17.6 °F 74% 29.63 in 2.0 mi SSW 23.0 mph 28.8 mph 0.00 in Snow Light Snow
7:52 PM 24.1 °F 9.0 °F 17.1 °F 75% 29.67 in 1.8 mi SSW 21.9 mph 28.8 mph 0.00 in Snow Light Snow
8:07 PM 23.0 °F 6.9 °F 19.4 °F 86% 29.62 in 0.8 mi SW 24.2 mph 29.9 mph 0.00 in Snow Light Snow
8:34 PM 24.8 °F 11.1 °F 21.2 °F 86% 29.59 in 1.2 mi SW 18.4 mph 33.4 mph 0.01 in Snow Light Snow
8:43 PM 24.8 °F 10.0 °F 21.2 °F 86% 29.58 in 2.0 mi SSW 21.9 mph - 0.01 in Snow Light Snow
8:52 PM 24.1 °F 9.4 °F 21.0 °F 88% 29.61 in 2.5 mi SW 20.7 mph - 0.01 in Snow Light Snow
9:04 PM 24.8 °F 10.7 °F 21.2 °F 86% 29.56 in 4.0 mi SW 19.6 mph - 0.00 in Snow Light Snow
9:43 PM 26.6 °F 10.3 °F 21.2 °F 80% 29.54 in 1.8 mi SW 29.9 mph 36.8 mph 0.01 in Snow Light Snow
9:52 PM 26.1 °F 10.7 °F 21.9 °F 84% 29.57 in 1.2 mi SW 25.3 mph 36.8 mph 0.01 in Snow Light Snow
10:30 PM 26.6 °F 12.4 °F 23.0 °F 86% 29.50 in 1.5 mi SW 21.9 mph 29.9 mph 0.01 in Snow Light Snow
10:41 PM 26.6 °F 12.7 °F 23.0 °F 86% 29.50 in 2.5 mi SW 20.7 mph 32.2 mph 0.01 in Snow Light Snow
10:52 PM 26.1 °F 11.6 °F 24.1 °F 92% 29.52 in 1.8 mi SW 21.9 mph 31.1 mph 0.01 in Snow Light Snow
11:33 PM 26.6 °F 12.7 °F 24.8 °F 93% 29.46 in 4.0 mi SW 20.7 mph 29.9 mph 0.01 in Snow Light Snow
11:52 PM 28.0 °F 15.3 °F 25.0 °F 88% 29.48 in 3.0 mi WSW 18.4 mph 35.7 mph 0.01 in Snow Light Snow